Regional Weather Roundup
Issued by NWS Sioux Falls, SD

Home | Current Version | Previous Version | Graphics & Text | Print | Product List | Glossary Off
Versions: 1 2 3 4 5 6 7 8 9 10 11 12 13 14 15 16 17 18 19 20 21 22 23 24 25 26 27 28 29 30 31 32 33 34 35 36 37 38 39 40 41 42 43 44 45 46 47 48 49 50

000
ASUS43 KFSD 301310
RWRFSD

WEATHER ROUNDUP FOR SE SOUTH DAKOTA/SW MINNESOTA/NW IOWA
NATIONAL WEATHER SERVICE SIOUX FALLS SD
800 AM CDT SAT APR 30 2016

NOTE: "FAIR" INDICATES FEW OR NO CLOUDS BELOW 12,000 FEET WITH NO
SIGNIFICANT WEATHER AND OR OBSTRUCTIONS TO VISIBILITY.


SDZ038>040-050-052>070-301400-
SOUTHEAST SOUTH DAKOTA

CITY           SKY/WX    TMP DP  RH WIND       PRES   REMARKS
BROOKINGS      PTSUNNY   40  35  83 NE15G21   29.97S
CHAMBERLAIN    CLOUDY    45  41  86 NE9       29.99R
HURON          CLOUDY    42  38  85 NE10      30.01R
MADISON        FAIR      41  41 100 NE18G24   29.95S
MITCHELL       CLOUDY    45  40  82 NE14      29.98R
SIOUX FALLS    CLOUDY    45  38  76 E20G26    29.93R
WINNER         LGT RAIN  43  38  82 NE15      29.96R
YANKTON        CLOUDY    43  39  87 NE17      29.87F
$$

MNZ071-072-080-081-089-090-097-098-301400-
SOUTHWEST MINNESOTA

CITY           SKY/WX    TMP DP  RH WIND       PRES   REMARKS
FAIRMONT       CLOUDY    45  30  57 NE17G25   29.96R
JACKSON        CLOUDY    43  37  81 NE16      29.95R
LUVERNE        CLOUDY    43  36  75 NE16G24   29.93R
MARSHALL       PTSUNNY   40  34  79 E15       30.02S
MONTEVIDEO     PTSUNNY   39  34  81 E16       30.07R
REDWOOD FALLS  CLOUDY    41  33  73 NE12G18   30.02F
TRACY          PTSUNNY   41  37  86 NE10G18   30.00S
WINDOM         CLOUDY    43  39  87 NE15G22   29.97R
WORTHINGTON    CLOUDY    43  39  86 NE20      29.94R
$$

IAZ001>003-012>014-020>022-031-032-NEZ013-014-SDZ071-301400-
NORTHWEST IOWA

CITY           SKY/WX    TMP DP  RH WIND       PRES   REMARKS
CHEROKEE       LGT RAIN  43  42  98 NE18G29   29.84F
DENISON        RAIN      43  43 100 E23G33    29.76R
ESTHERVILLE    LGT RAIN  43  39  86 NE22      29.93R
LE MARS        LGT RAIN  45  41  87 NE20G30   29.83F
ORANGE CITY    LGT RAIN  43  39  87 E16G28    29.85F
SHELDON        LGT RAIN  43  41  93 NE21G28   29.88S
SIOUX CITY     HVY RAIN  45  41  86 NE17G25   29.81S FOG
SPENCER        LGT RAIN  43  38  82 NE22      29.91R
STORM LAKE     CLOUDY    43  41  93 E28G37    29.82F FOG
$$

ABBREVIATIONS USED IN REMARKS
   TC - TEMPERATURE IN CELSIUS
  WCI - WIND CHILL INDEX
   HX - HEAT INDEX
  VSB - VISIBILITY




USA.gov is the U.S. government's official web portal to all federal, state and local government web resources and services.